GPS BIIR-11 (PRN 19)

Last updated on Tue Jul 01 2025 00:03:13 GMT+0000 (Coordinated Universal Time)

1 28190U 04009A 25181.45504171 -.00000075 00000+0 00000+0 0 9998 2 28190 55.1253 289.8770 0106175 161.9783 246.0037 2.00567041155894
UTC large
Height (km)
Speed (km/s)
/
Latitude / Longitude
Inclination (degrees)
Orbital Period (minutes)
Azimuth
Elevation
Range (km)
Doppler Factor

Next 0 passes for location: London (51.5072 / 0.1276)

Sorry there are no passes over London.